Wind_Speed
67 69 71 73 76 78 80 82 84 86 89 90 92 93 93 95 98 101 103 104 105 106 108 110 112 113 114 115 116 116 117 118 118 119 119 119 119 118 118 117 115 114 113 112 111 111 110 110 109 108 107 106 105 103 102 101 101 100 100 100 100 99 99 98 98 98 97 97 97 96 96 97 97 97 96 95 95 95 96 97 98 98 98 98 99 100
71 72 74 77 79 81 83 84 86 88 89 91 92 93 95 97 100 103 106 108 109 110 111 112 112 113 114 116 116 116 117 118 119 119 119 118 117 115 114 113 112 111 110 110 110 109 109 108 108 107 106 105 104 103 102 100 99 98 98 98 98 98 98 98 98 98 98 99 99 99 99 99 100 100 99 99 97 97 97 98 99 100 100 100 101 102
74 75 77 79 81 83 85 86 87 88 90 92 94 96 98 101 103 105 109 111 112 113 113 114 114 114 115 116 117 117 118 119 118 117 115 114 112 111 110 110 109 109 109 108 108 107 107 106 105 105 104 104 103 102 102 101 99 98 97 96 97 97 97 98 98 98 98 99 99 100 101 101 102 102 102 102 101 100 99 99 100 101 102 102 102 103
76 77 79 80 82 84 86 88 89 91 93 95 97 100 102 104 106 107 110 112 113 114 115 115 115 114 115 117 117 117 117 115 114 112 110 110 109 109 109 108 107 107 107 106 106 105 105 104 103 103 102 101 100 100 99 99 98 97 96 95 95 96 96 97 98 98 98 98 99 100 102 103 104 104 104 104 104 104 103 101 101 102 103 103 104 104
77 79 80 82 84 86 88 91 93 95 97 99 101 103 105 107 109 110 111 113 114 114 114 114 113 113 115 116 115 112 111 110 108 108 107 107 107 107 105 105 104 103 103 102 102 102 102 102 101 101 100 99 98 97 96 96 95 95 95 94 94 94 95 95 97 98 99 99 99 100 101 103 104 106 106 107 107 107 106 105 104 104 104 104 105 106
79 81 83 85 87 89 91 94 96 98 101 103 105 106 107 109 110 112 113 114 115 114 114 113 112 110 109 110 108 107 107 107 106 106 105 105 104 103 102 101 100 100 99 99 99 100 100 100 100 99 99 98 97 96 95 93 92 93 93 93 93 93 94 95 96 97 98 99 100 100 101 102 104 106 107 108 109 109 109 109 109 108 107 106 106 107
82 84 86 88 90 92 94 96 99 101 102 104 106 108 109 111 112 113 113 114 115 116 115 113 109 104 102 103 103 104 105 105 104 104 103 103 102 101 101 100 99 99 99 99 99 99 99 99 99 99 99 98 97 96 96 94 93 92 92 92 92 93 93 93 94 96 98 99 100 101 101 102 103 105 107 109 110 111 112 112 112 112 111 110 109 109
85 87 88 90 92 94 97 99 100 102 104 106 108 109 111 112 112 113 114 115 115 113 110 106 103 100 98 100 100 101 102 102 101 102 102 102 101 101 101 100 100 99 99 99 99 99 99 99 99 99 98 98 97 96 95 94 93 93 92 92 92 92 93 93 93 94 96 98 100 101 102 103 103 104 107 109 110 112 113 114 115 114 114 113 112 112
87 89 91 93 94 96 98 100 102 104 105 107 109 110 110 111 112 113 112 110 108 105 103 101 100 99 98 99 99 99 100 100 100 100 101 101 101 100 100 100 99 99 99 99 98 99 99 99 98 98 97 96 95 94 92 91 90 90 91 91 91 91 92 92 92 93 94 96 98 100 102 104 104 104 106 108 110 112 113 115 117 117 117 116 116 116
90 91 93 95 96 97 99 101 103 105 106 107 108 109 110 110 109 107 104 102 101 101 102 101 101 99 97 97 98 98 98 97 97 98 99 99 100 100 100 99 98 98 97 97 97 96 96 96 96 96 95 94 93 91 90 88 87 87 87 88 88 88 88 89 90 92 94 95 96 97 100 103 105 106 106 108 110 112 113 115 117 119 119 119 119 119
91 93 94 96 98 99 101 103 104 105 106 107 107 107 107 105 102 99 97 98 99 100 101 101 100 98 96 95 96 96 95 95 95 96 97 98 98 98 98 97 97 96 96 95 94 93 93 93 93 93 93 92 91 90 88 86 85 85 85 85 86 86 86 85 86 88 91 94 95 96 97 100 104 106 108 109 110 112 113 115 117 119 120 121 121 121
92 94 96 98 100 101 102 103 104 105 105 105 104 102 100 98 96 95 96 97 98 99 100 99 98 97 95 94 94 94 94 94 95 95 96 96 97 97 96 96 96 95 94 93 92 91 90 90 90 91 91 90 90 90 88 87 85 83 83 83 84 85 85 84 84 85 88 91 94 95 96 98 101 104 107 109 111 112 114 115 117 119 121 122 123 123
93 95 97 99 100 101 102 103 104 104 104 102 99 97 95 94 94 93 94 94 94 96 97 98 96 95 94 94 93 93 93 93 93 94 94 95 95 95 95 95 94 93 92 91 89 88 87 87 87 88 89 89 89 89 88 87 85 83 82 81 82 83 84 84 84 84 85 88 91 94 95 97 98 101 104 108 110 112 113 115 117 119 120 122 123 124
94 96 97 98 100 101 102 103 103 101 99 97 94 92 92 92 92 91 90 89 89 90 93 95 94 93 92 92 92 92 92 91 91 92 92 92 93 93 94 93 92 91 90 89 88 86 85 84 84 85 85 85 85 85 85 85 84 82 81 80 80 80 81 83 84 84 84 86 88 91 93 95 97 99 101 105 108 111 113 115 117 119 120 122 124 125
95 96 97 98 100 101 101 100 98 96 93 92 91 90 90 91 91 90 89 88 87 87 89 92 93 92 90 90 90 90 90 90 89 90 90 90 91 91 91 90 89 89 88 87 86 84 83 81 81 81 81 81 81 81 81 80 80 79 78 78 78 78 79 80 82 84 84 84 86 88 90 92 95 97 99 102 105 108 111 114 116 118 120 122 124 125
95 96 97 98 99 98 97 95 93 91 90 90 90 90 90 90 91 91 90 89 88 86 86 87 90 91 89 88 88 88 89 89 88 88 88 88 88 88 89 88 87 87 87 86 85 83 81 79 78 78 77 77 76 76 76 76 76 76 75 75 75 76 76 77 78 80 82 83 84 86 88 89 91 94 97 99 102 105 108 111 114 117 119 121 123 125
95 96 95 95 95 93 91 89 88 88 89 90 90 90 90 91 91 91 90 89 88 86 84 84 86 89 88 85 85 86 87 88 87 87 87 86 86 86 87 87 86 85 85 84 83 82 80 78 77 76 75 75 74 73 73 73 73 72 72 72 72 73 74 75 76 77 79 81 82 84 85 87 88 91 93 96 99 102 104 108 111 115 118 120 123 125
93 92 91 89 88 87 86 85 86 87 89 90 91 91 91 91 91 91 90 88 87 85 83 81 84 89 87 83 82 83 85 87 86 86 86 85 84 84 85 85 85 84 84 83 82 81 79 77 76 75 74 74 73 72 71 70 70 70 69 69 70 70 71 72 74 75 77 78 80 82 83 85 87 88 90 93 96 99 102 105 108 112 115 118 121 123
88 87 86 83 82 82 83 85 87 88 89 91 91 92 92 91 91 91 90 89 87 85 82 78 80 88 88 83 81 81 83 86 86 86 85 84 83 82 83 84 84 83 83 83 82 80 79 77 75 74 73 72 72 71 71 70 68 68 68 67 67 68 69 70 71 72 74 76 78 80 81 83 85 87 88 90 92 96 99 101 104 108 111 115 118 120
83 82 80 79 79 80 83 85 87 89 90 91 91 91 92 91 90 90 89 88 86 85 83 77 76 85 89 85 82 81 82 85 85 85 85 84 82 81 82 84 83 83 83 82 82 81 80 79 77 74 72 70 70 70 70 69 68 66 66 66 66 66 67 68 68 69 71 73 75 77 79 81 83 85 87 88 90 92 95 99 101 104 107 110 114 117
77 77 77 78 78 80 82 84 86 88 90 91 90 90 90 90 89 88 87 87 86 84 84 79 75 81 89 88 83 81 82 84 85 86 86 84 82 82 83 85 84 83 83 83 83 83 82 81 79 76 74 71 70 69 69 68 67 66 65 64 64 64 65 67 67 67 68 69 72 74 76 78 80 82 85 87 88 90 92 95 98 101 103 106 110 113
73 75 77 78 79 81 82 84 85 87 89 91 90 89 88 87 87 87 86 85 84 84 84 81 76 77 86 89 84 82 83 85 86 87 87 86 84 82 83 85 85 84 83 84 84 84 84 83 82 79 77 74 71 69 68 67 67 66 65 65 64 64 64 65 66 67 67 67 68 70 73 75 77 79 82 84 86 88 89 91 94 98 101 103 106 109
73 74 76 78 80 82 83 84 84 86 88 89 90 89 87 85 85 86 86 85 84 83 83 82 77 75 84 89 85 83 84 85 86 87 87 86 84 83 83 85 85 84 84 84 84 84 84 84 83 82 80 76 73 69 67 66 66 65 65 65 65 64 64 64 65 66 67 67 67 68 70 72 75 77 79 81 83 86 88 89 91 94 97 100 103 105
73 75 77 79 80 82 82 83 84 84 86 87 89 89 86 84 83 84 85 84 83 82 83 84 78 75 83 88 85 83 85 85 85 87 86 86 84 82 83 84 85 84 83 83 84 84 84 84 84 83 81 78 74 71 68 66 65 65 64 64 64 64 64 64 64 65 66 67 67 67 68 69 72 74 76 79 81 83 85 87 89 91 93 96 100 103
74 76 77 78 79 80 80 81 82 83 84 86 88 88 85 83 82 83 84 84 83 81 82 85 80 75 82 88 84 84 85 84 85 87 86 85 83 81 82 83 84 83 83 83 84 84 84 84 83 83 81 79 75 72 69 67 65 65 64 63 62 62 63 64 64 65 65 66 66 67 68 68 69 71 73 76 78 80 82 85 87 89 90 92 95 99
75 77 78 78 79 80 80 80 80 80 83 85 88 88 85 82 82 83 85 85 85 82 83 86 82 76 80 86 84 84 85 83 84 86 86 86 83 81 81 83 83 82 82 83 83 84 83 83 83 82 80 79 76 72 70 68 66 65 65 63 61 60 61 62 63 64 65 65 65 66 67 67 68 69 71 73 75 78 79 81 83 85 87 89 92 95
75 77 78 78 79 81 82 80 79 79 81 85 88 88 85 82 82 84 86 87 87 85 84 87 86 81 81 83 82 84 85 83 83 85 86 86 83 81 81 83 83 82 82 82 83 83 82 82 81 80 79 78 75 72 70 68 67 66 65 64 61 59 59 59 60 61 63 64 65 65 65 66 67 68 69 71 72 75 77 78 80 82 84 86 89 91
74 76 78 77 78 82 83 81 79 79 81 85 89 89 85 82 82 85 87 89 89 88 87 87 87 86 86 84 81 83 85 83 83 85 86 86 84 81 81 83 83 82 82 82 83 82 82 81 80 79 78 77 75 72 69 67 66 66 65 64 62 59 58 58 58 59 60 61 63 63 64 65 65 67 68 69 70 72 74 76 77 79 81 83 85 88
74 74 76 76 76 81 84 82 80 80 81 86 90 89 85 81 82 84 87 90 91 90 90 89 87 88 90 87 83 83 84 83 83 84 86 87 84 81 82 83 83 83 83 83 83 83 82 81 80 79 78 76 74 71 68 66 65 65 65 64 63 61 59 58 57 57 57 58 60 61 62 63 64 65 67 68 69 70 71 73 75 77 79 81 83 85
74 73 75 75 74 78 84 83 81 81 82 86 90 90 85 81 81 84 87 91 92 92 91 90 88 88 90 89 85 84 84 83 83 84 86 87 84 81 82 83 83 83 84 84 84 83 83 82 80 79 78 76 74 71 69 67 65 65 64 64 63 62 60 59 58 57 56 55 56 58 60 61 61 63 65 67 68 69 70 71 73 75 77 79 80 82
75 74 75 75 72 75 81 82 81 81 83 87 91 90 86 81 80 83 87 90 92 93 92 90 89 89 89 89 87 85 84 83 83 84 86 86 83 82 82 83 83 84 84 84 84 84 83 82 81 80 79 77 75 73 71 69 67 66 65 64 64 63 61 60 59 58 56 55 54 55 56 58 59 60 62 65 66 67 68 70 71 73 74 76 78 80
77 76 77 76 73 74 78 80 79 80 82 86 91 91 85 81 80 82 86 89 92 93 91 89 90 91 89 88 87 86 85 84 84 85 86 85 83 83 83 83 83 83 84 84 84 84 83 82 81 80 79 77 76 74 72 71 69 67 66 65 64 63 62 60 59 59 57 56 55 54 54 55 56 58 60 62 64 66 67 69 70 71 73 74 75 76
78 79 79 78 76 75 78 79 77 79 81 85 91 91 85 81 80 81 83 87 91 93 90 88 89 90 88 88 87 85 84 84 84 86 87 84 82 82 84 84 83 83 83 83 83 83 83 82 81 80 79 77 76 74 72 71 69 67 66 65 63 63 61 60 59 59 58 57 56 55 54 54 55 56 58 60 62 64 65 67 68 69 71 72 73 74
80 81 81 80 79 77 79 80 77 78 81 85 91 91 85 82 81 80 81 85 90 92 89 87 88 88 87 87 87 85 83 83 84 86 88 85 82 82 83 84 84 83 82 82 82 83 82 81 81 80 79 77 76 74 72 70 69 68 66 65 63 62 61 59 58 58 57 57 57 55 55 54 55 55 57 58 59 61 63 64 66 67 69 70 72 73
82 83 82 82 82 80 81 81 79 78 80 85 92 91 86 84 84 81 79 82 88 90 87 85 86 86 86 86 86 85 83 82 83 86 88 86 84 84 84 84 84 83 82 82 82 82 82 81 80 79 78 77 76 74 72 70 69 68 67 65 63 62 60 59 57 56 56 56 56 55 54 54 54 55 56 57 58 59 60 61 63 64 66 68 70 72
84 85 85 85 85 84 83 82 82 80 79 84 92 91 88 88 87 84 78 77 84 88 84 83 84 84 85 85 84 84 84 81 81 85 87 86 85 86 86 85 85 84 83 82 82 81 81 81 80 79 78 77 76 74 72 70 69 68 66 65 63 62 60 58 57 56 55 54 54 53 53 53 53 54 55 56 57 58 58 59 60 61 63 65 68 70
86 86 87 87 87 88 86 84 84 82 81 85 90 89 89 89 88 86 79 73 78 84 83 82 83 83 84 84 83 84 84 81 80 83 85 85 86 87 87 86 86 85 83 83 82 81 80 80 80 79 77 76 75 74 72 70 68 67 65 64 63 61 60 58 57 55 55 54 53 53 52 52 52 53 54 54 55 56 57 57 58 58 60 62 65 67
86 87 89 89 88 89 89 87 86 85 86 89 90 89 90 91 91 89 82 74 76 83 83 83 83 83 83 84 83 84 84 82 80 82 85 85 86 87 86 86 86 85 84 83 82 80 79 78 79 79 77 75 74 73 72 70 68 66 65 63 62 61 60 59 57 55 55 54 53 52 52 52 52 53 53 53 54 54 54 55 56 56 57 59 62 64
86 88 89 89 89 90 90 89 88 88 90 93 92 91 93 94 93 92 86 79 79 83 84 83 83 83 84 84 84 85 86 84 83 83 86 86 86 87 86 86 86 85 84 84 82 81 80 78 78 78 77 75 73 72 71 70 68 67 65 64 62 60 59 58 57 55 53 53 53 53 52 52 52 53 53 53 53 53 52 53 53 54 55 57 59 61
85 88 88 88 88 89 90 89 88 89 92 94 93 93 95 96 95 93 90 85 84 85 85 84 84 85 86 86 86 86 87 88 87 86 88 88 87 88 87 87 86 86 85 84 83 82 81 80 79 77 76 75 73 72 70 69 68 67 66 64 62 60 59 58 56 55 52 51 52 52 52 52 52 52 52 52 52 52 52 51 51 52 53 54 56 58
86 87 87 87 87 88 89 89 89 89 91 93 93 94 95 96 95 94 92 90 89 89 88 87 87 88 88 88 88 87 87 89 89 89 89 90 90 90 90 89 88 87 86 85 83 82 81 80 79 78 76 74 73 71 70 68 67 67 66 65 63 60 59 58 56 54 52 50 50 51 52 52 51 51 51 52 52 52 52 50 51 51 51 52 53 55
87 88 87 87 87 88 87 89 92 92 90 91 93 94 95 96 95 94 93 92 92 92 91 90 90 90 90 89 89 88 88 89 91 91 91 91 92 92 92 91 90 88 87 86 84 82 81 80 79 78 76 74 72 70 69 67 66 66 65 64 63 61 59 58 57 55 52 50 49 49 50 50 50 50 51 51 51 52 51 50 50 50 51 51 51 53
88 90 88 87 88 89 88 90 95 96 93 92 93 94 96 95 94 95 94 93 92 93 93 92 91 92 92 90 90 90 90 91 92 92 93 93 94 94 92 91 90 89 87 86 84 82 81 80 79 77 76 74 72 70 68 66 65 65 65 63 62 60 59 59 57 56 54 52 50 49 49 49 49 49 50 50 51 51 51 50 50 50 50 50 51 52
89 90 89 88 89 89 88 91 96 97 95 93 92 93 95 94 94 95 94 93 92 92 93 93 92 92 93 92 91 91 92 92 93 93 94 94 94 94 92 90 89 88 87 85 83 82 81 79 78 77 75 73 71 69 67 66 65 65 64 63 61 60 59 59 58 56 54 53 51 49 48 48 48 48 49 49 50 50 50 50 50 50 50 50 50 51
89 89 89 88 88 88 87 90 95 95 93 92 91 91 93 93 93 94 94 92 92 93 94 94 93 92 93 93 93 92 93 93 94 95 95 95 95 94 92 90 89 88 86 85 83 82 80 79 78 77 75 74 72 69 68 66 64 64 64 62 60 59 59 58 57 56 55 53 52 50 49 48 48 48 48 49 49 50 49 49 49 49 49 49 50 51
89 89 88 87 87 86 85 88 93 93 90 91 91 91 92 92 92 94 94 93 94 94 95 95 94 94 94 95 95 94 94 96 96 97 97 97 96 95 93 91 90 88 86 84 83 81 80 79 77 77 75 74 72 70 68 66 64 64 63 62 59 58 58 57 56 56 55 54 52 51 49 48 48 47 48 48 48 49 49 49 49 48 48 48 49 50
90 90 90 88 88 87 86 87 91 90 87 89 92 92 92 92 92 93 94 95 95 95 95 95 95 95 95 96 96 96 97 98 99 98 98 98 97 96 94 92 90 88 86 84 83 81 79 78 77 76 75 74 73 71 68 66 64 63 63 61 59 57 57 56 55 55 54 54 53 52 50 49 48 48 47 47 48 48 48 48 48 48 47 46 48 49
90 91 91 90 88 88 88 90 90 86 83 86 91 93 92 91 91 92 93 94 95 94 94 94 95 96 96 97 98 98 99 100 100 100 99 99 98 96 94 91 90 88 86 84 82 81 79 78 77 76 75 74 73 71 69 67 65 64 63 61 59 57 56 55 54 54 54 54 53 53 51 50 49 48 48 47 47 47 48 48 48 48 47 46 46 48
92 92 93 92 90 89 90 91 90 85 80 81 87 90 90 90 91 91 91 93 94 94 94 95 95 97 97 98 99 100 100 101 101 101 100 100 98 95 93 91 89 87 85 83 82 80 79 78 77 76 75 74 72 71 69 67 65 64 63 61 59 57 56 55 54 53 53 53 53 53 52 50 49 48 48 47 47 47 47 47 47 48 47 46 46 47
93 94 95 95 93 91 90 90 90 88 84 83 85 87 89 91 91 91 91 93 93 94 95 95 95 96 98 99 101 102 102 102 102 102 101 99 97 94 92 90 88 86 84 82 81 80 79 78 77 75 74 73 72 70 69 67 65 64 63 61 59 57 56 55 55 54 53 52 53 53 52 51 50 49 48 48 47 46 46 45 46 47 47 46 46 46
93 94 96 97 96 93 92 90 90 90 89 88 88 88 90 92 92 91 92 93 93 94 95 95 96 97 99 100 102 103 103 103 102 101 100 97 95 93 91 89 87 85 83 82 81 80 79 77 76 75 74 73 71 70 69 67 65 64 63 61 60 58 57 55 55 54 53 52 53 53 53 51 50 49 48 47 47 47 46 45 44 46 47 47 46 46
Wind_Direction
275 276 277 277 278 278 279 280 281 283 284 285 286 287 287 288 289 289 289 290 290 290 291 292 293 293 293 294 294 294 294 294 293 293 292 292 292 292 291 291 291 290 290 289 289 288 288 287 286 285 284 283 282 280 278 277 276 275 274 273 272 270 269 267 265 264 262 261 259 258 257 257 257 257 255 253 249 247 246 245 245 245 245 243 242 242
275 276 277 277 278 279 281 282 283 284 285 286 287 288 288 289 289 289 290 290 291 291 292 293 294 294 294 294 294 294 294 293 293 292 292 292 292 291 291 291 290 290 290 289 289 288 288 287 287 286 285 284 283 282 280 278 277 275 273 272 271 270 268 266 264 262 261 259 258 257 255 254 254 255 255 254 252 249 246 245 244 244 244 244 243 242
276 278 279 280 281 283 284 284 285 286 287 288 288 289 289 289 289 290 290 291 292 293 294 295 295 295 295 295 294 294 294 293 293 293 293 292 292 292 292 291 291 291 291 290 290 289 288 288 287 286 285 284 283 282 281 280 278 276 275 273 271 270 268 267 265 262 260 258 257 255 254 253 252 252 252 253 253 251 248 246 244 243 243 243 243 242
279 281 282 283 284 285 286 287 287 288 288 288 289 289 290 290 290 291 292 293 294 295 295 295 295 295 295 295 294 294 294 294 293 293 293 293 293 293 293 292 292 292 292 291 290 290 289 288 287 286 285 284 283 282 281 280 279 277 276 274 272 270 268 267 265 263 261 258 256 255 253 252 251 250 250 250 251 251 250 248 245 244 243 242 242 242
282 283 284 285 286 287 287 288 289 289 289 289 290 290 291 292 292 293 294 294 294 295 295 295 295 295 295 295 295 295 294 294 294 294 294 294 293 293 293 292 292 292 291 291 291 290 290 289 288 287 286 285 284 283 281 280 279 277 276 274 272 269 267 266 264 263 261 259 257 254 253 252 250 249 248 248 248 248 249 249 247 245 243 242 242 242
285 285 286 286 287 287 288 289 289 290 290 291 291 292 293 294 294 295 295 295 295 295 296 296 296 296 296 296 296 296 295 295 295 295 295 294 294 294 294 293 293 293 293 293 292 292 291 291 290 289 288 287 286 285 283 281 279 277 276 274 271 269 267 265 263 262 261 259 258 255 253 251 250 249 248 247 246 246 246 247 247 246 245 243 241 241
286 286 287 287 288 288 289 289 290 290 291 292 293 294 294 295 295 296 296 297 297 297 297 297 297 297 297 296 296 296 296 296 297 297 297 296 296 296 296 297 296 296 296 295 295 294 293 292 292 291 290 289 288 287 286 284 282 280 277 275 273 270 268 265 263 261 260 259 257 256 254 252 250 249 248 247 245 245 245 245 245 245 245 244 243 241
287 287 288 288 289 289 289 290 291 292 293 294 294 295 295 296 297 298 298 298 298 298 298 298 298 298 298 298 298 298 298 298 299 299 299 299 299 299 299 299 298 298 297 297 296 295 294 294 293 292 291 290 288 287 286 285 283 281 279 277 274 272 270 267 264 262 260 258 257 256 254 253 251 249 248 247 246 244 244 244 244 244 244 244 244 242
288 288 288 289 289 290 291 292 293 293 294 295 295 296 297 298 298 299 299 299 299 299 299 299 300 300 301 301 301 301 300 301 301 301 301 300 300 300 300 299 299 299 298 297 296 295 295 294 293 292 291 290 289 288 286 285 283 281 279 277 275 272 270 268 266 264 261 259 257 256 254 253 252 250 248 247 246 245 244 243 243 243 243 243 243 243
288 289 290 290 291 292 292 293 294 294 295 296 297 297 298 298 299 300 300 301 301 301 302 302 302 303 303 303 303 302 302 302 302 301 301 300 300 300 300 299 299 298 297 297 296 296 295 294 294 293 292 291 290 289 288 286 284 282 280 278 275 273 270 268 267 265 263 261 258 255 254 253 252 251 249 247 246 245 243 243 242 242 242 242 242 242
290 291 291 292 292 293 293 294 295 295 296 297 297 298 299 300 301 302 303 303 304 304 304 304 304 304 305 304 303 303 302 302 302 301 301 301 300 300 299 299 299 298 298 297 297 296 296 295 294 294 293 292 291 290 289 287 285 283 281 279 277 275 272 269 266 264 262 261 259 257 254 252 251 251 250 248 246 245 244 242 242 241 241 241 241 241
291 291 292 292 293 294 294 295 296 296 297 298 300 301 302 303 304 304 305 305 305 305 305 305 305 305 305 305 304 303 303 303 302 302 301 301 301 301 300 300 300 299 299 298 298 297 297 296 296 295 295 294 293 292 291 289 287 284 282 280 277 275 273 270 266 263 261 260 259 257 255 253 251 250 249 249 247 246 244 243 242 241 241 240 240 240
291 291 292 293 294 295 296 297 298 299 301 302 303 304 304 305 305 305 305 306 306 306 306 305 305 306 306 305 305 304 304 303 302 302 302 302 302 301 301 301 301 300 300 299 299 299 298 298 297 296 295 294 294 293 291 290 288 285 282 280 277 275 273 271 269 265 262 260 258 257 255 254 252 250 249 248 248 247 245 244 243 241 240 240 240 239
292 293 294 295 296 297 298 300 301 302 303 304 304 304 305 305 305 305 305 305 306 306 306 306 306 306 306 305 305 304 303 303 303 303 303 302 302 302 302 301 301 301 301 300 300 300 299 298 296 295 294 294 293 292 291 289 288 286 284 281 278 275 273 272 270 268 265 262 260 258 256 254 253 251 250 248 247 247 246 245 244 242 241 240 240 239
294 295 296 297 298 300 301 302 303 304 304 304 305 305 305 306 306 306 306 307 307 307 307 306 306 306 306 305 305 304 304 304 304 304 304 303 303 303 302 302 302 302 302 301 300 300 298 297 296 295 294 294 293 292 291 289 288 286 284 282 279 276 274 271 270 269 267 264 261 259 257 255 253 252 251 249 248 247 246 246 245 244 243 241 240 239
296 297 298 300 301 302 303 304 304 304 305 305 306 307 308 308 308 309 309 309 309 309 308 307 306 306 305 306 306 306 306 305 305 305 304 304 304 303 304 304 304 303 303 302 301 300 299 298 297 296 295 294 294 293 292 290 289 287 285 282 280 277 275 272 270 268 267 265 263 261 259 257 255 253 252 251 249 248 247 246 246 245 244 243 241 240
298 299 300 301 302 303 304 304 305 306 307 308 308 309 310 310 310 310 309 309 309 309 308 308 307 306 306 307 307 307 306 306 306 305 305 305 305 305 305 305 305 304 304 303 303 302 301 301 300 299 298 297 296 294 293 291 290 288 285 283 280 278 275 273 271 268 267 265 264 262 260 258 256 254 253 251 250 249 248 246 246 245 245 244 243 242
299 300 301 302 303 304 305 306 307 308 309 310 310 311 311 311 310 310 310 309 309 309 309 310 309 307 306 308 308 307 307 306 306 306 306 307 307 307 307 306 306 306 306 305 305 304 304 304 303 302 301 299 298 297 295 293 291 289 287 284 281 279 276 274 272 270 267 265 264 263 261 260 258 256 254 252 251 250 249 247 246 246 245 245 244 243
300 301 302 303 304 306 307 309 310 310 311 311 311 311 311 311 311 311 310 310 310 310 310 312 312 308 307 309 309 309 308 307 307 308 308 308 309 309 308 307 307 308 307 307 307 307 307 306 306 305 303 302 300 299 297 295 293 291 289 286 284 281 278 275 272 270 268 266 264 263 262 260 259 258 256 254 251 250 249 249 247 246 246 245 245 245
300 302 303 304 306 308 310 311 311 311 311 311 311 311 311 312 312 312 312 311 311 311 311 313 314 311 309 309 310 310 310 309 309 309 309 309 310 311 310 309 309 310 309 309 310 310 310 309 308 307 306 304 302 301 299 297 295 293 291 289 286 283 280 277 274 271 269 267 265 264 262 261 259 258 257 256 253 251 250 249 249 247 247 246 246 245
302 304 305 307 309 310 311 311 311 311 311 311 311 311 312 313 313 313 312 312 312 312 312 313 315 314 311 310 312 313 312 311 311 311 311 312 313 314 313 311 311 312 311 312 312 312 312 312 311 310 309 307 305 302 300 298 296 295 293 291 288 286 283 280 277 274 271 268 267 265 263 261 260 259 258 257 255 253 251 250 249 248 248 247 246 246
304 306 308 309 310 311 311 311 311 311 311 311 311 312 313 314 314 313 312 313 313 314 313 314 316 317 313 311 314 315 314 314 314 313 314 314 315 315 314 313 313 313 313 313 313 313 313 313 313 312 311 309 307 305 302 300 299 297 295 293 291 288 285 282 280 278 275 271 268 266 265 263 261 260 258 257 256 255 253 251 250 249 248 248 247 246
307 309 309 310 310 311 311 311 311 312 312 312 312 312 313 314 314 314 313 314 314 315 314 313 316 319 315 312 315 317 316 316 316 315 315 315 316 316 315 314 313 314 314 314 314 314 314 314 314 313 312 311 309 307 304 302 300 298 296 295 292 290 288 285 282 280 278 275 272 268 266 264 263 261 260 258 257 256 255 253 251 250 249 248 248 247
309 310 310 310 310 310 311 311 312 313 313 313 312 312 313 315 315 314 314 314 315 316 315 314 316 321 316 314 317 318 317 317 317 316 315 315 315 316 315 314 314 314 314 314 314 314 315 314 314 313 312 311 310 308 306 303 301 299 297 295 293 291 289 287 284 282 279 277 275 272 268 266 264 262 261 259 258 256 255 254 253 251 250 248 248 248
309 309 309 309 309 310 310 311 312 314 314 314 314 313 314 316 316 315 315 315 315 317 317 315 317 322 318 315 318 319 317 318 317 316 315 315 315 316 315 314 313 314 314 314 315 315 315 314 313 312 312 311 310 309 307 305 303 300 298 296 294 291 289 288 286 284 281 278 276 274 271 268 266 263 262 260 259 257 256 255 254 252 251 249 248 248
309 309 309 310 310 310 310 311 313 315 316 316 315 314 316 317 318 318 317 317 317 318 319 316 318 322 319 316 319 319 317 318 318 315 315 314 315 317 316 314 314 314 315 315 315 315 314 313 312 312 311 311 310 310 308 307 304 302 299 296 294 291 289 287 285 284 282 280 278 275 273 271 268 266 263 261 260 259 257 256 254 253 252 251 250 248
309 309 310 311 311 311 311 312 315 317 318 318 316 315 317 319 321 321 320 319 318 319 320 318 320 322 319 318 320 319 318 319 318 316 315 315 316 317 316 314 315 315 315 315 315 314 313 313 312 311 311 311 310 310 309 308 305 303 300 297 294 291 289 287 285 283 282 280 279 277 275 272 270 268 265 263 260 259 258 257 256 254 253 252 251 250
309 310 310 311 312 312 313 314 317 319 320 320 317 316 319 321 323 322 321 320 319 320 320 320 322 322 319 319 321 319 318 319 319 317 316 315 317 318 317 316 316 316 316 316 315 314 313 313 312 312 311 310 310 310 309 308 306 304 301 298 296 294 291 289 286 284 282 280 279 278 276 273 271 268 267 264 262 260 259 258 257 255 254 253 252 251
309 310 310 311 314 314 314 316 319 321 322 321 318 317 320 323 324 323 322 320 320 320 320 320 322 322 319 320 322 320 319 320 319 317 316 315 317 319 318 317 317 317 317 316 316 315 315 314 313 312 311 311 310 311 310 309 308 305 303 300 298 296 294 291 289 286 283 281 279 277 276 274 271 269 267 265 264 261 260 258 257 256 255 254 253 251
309 311 311 311 315 317 317 318 321 323 324 322 319 318 320 323 325 324 322 321 321 320 320 321 322 321 320 320 321 321 320 320 319 318 316 316 318 320 319 318 318 318 317 317 317 316 315 315 314 313 312 312 312 312 312 311 309 307 304 302 300 299 297 294 291 288 285 282 279 277 276 274 272 270 268 266 264 263 261 259 257 256 255 254 253 252
310 312 311 312 316 319 318 319 322 325 325 323 319 318 320 324 326 325 322 321 321 320 320 321 322 320 320 321 321 321 321 320 319 318 316 317 319 320 319 318 318 318 318 318 318 317 316 315 315 314 314 314 314 314 314 313 312 309 307 305 303 301 299 297 294 292 289 285 282 279 276 274 272 270 268 267 265 264 262 260 259 257 256 254 253 253
312 313 313 314 318 320 320 320 323 326 326 322 318 317 320 324 326 325 323 322 320 319 320 322 321 320 320 321 321 321 321 320 320 318 317 318 320 320 319 318 318 318 319 319 318 317 317 316 315 315 315 315 315 315 315 314 313 311 309 306 304 303 301 299 296 294 292 289 286 282 278 275 272 270 267 266 265 264 262 261 260 259 258 256 255 254
314 314 315 317 319 321 321 321 325 326 326 322 317 316 320 325 325 324 323 322 320 319 320 322 320 320 321 320 320 321 321 321 320 319 318 319 320 320 319 319 319 319 319 319 318 318 317 317 316 316 316 316 315 315 315 314 313 311 309 307 305 304 302 300 298 296 293 291 288 285 282 278 274 271 268 266 264 263 262 261 260 260 259 258 257 256
316 316 317 318 320 322 322 322 326 327 326 322 316 315 321 324 323 323 324 323 320 319 321 321 320 320 321 320 320 321 321 321 321 319 318 319 321 320 319 320 319 320 320 319 318 318 317 317 317 316 316 315 315 315 315 314 313 312 310 308 306 304 303 301 298 296 294 292 289 286 283 280 277 274 271 268 265 263 262 261 261 260 260 259 258 257
317 317 319 320 321 323 323 324 326 327 326 321 315 316 322 324 323 323 325 324 320 318 320 321 320 320 320 320 320 321 321 321 321 319 318 320 321 320 320 320 320 320 321 320 319 318 318 318 317 317 316 316 316 316 315 315 314 312 311 309 307 305 303 301 299 297 294 291 289 286 283 280 278 275 273 270 268 265 263 262 261 260 260 259 258 257
318 319 320 321 323 323 324 325 325 326 326 320 315 318 323 323 322 322 325 326 321 318 320 320 320 320 320 320 320 320 320 322 322 319 319 320 321 321 321 322 321 321 321 321 320 319 318 318 318 317 317 316 316 316 316 315 314 313 311 309 308 306 304 302 300 297 295 292 289 287 284 281 278 276 274 271 269 267 266 263 262 261 260 259 258 257
319 321 321 322 323 323 324 325 325 325 324 319 316 321 323 322 321 321 325 328 322 318 320 321 320 321 320 320 320 320 320 322 322 320 319 321 322 321 322 322 322 322 322 321 320 319 319 319 318 317 317 317 317 316 316 315 314 313 311 310 308 307 305 303 302 299 297 294 291 289 286 283 280 277 275 272 270 268 267 265 263 261 260 258 258 257
320 321 321 322 323 323 323 325 325 325 323 319 320 324 324 322 321 321 325 329 324 320 321 322 322 322 321 320 321 321 321 322 322 321 320 321 322 322 322 322 322 322 322 321 320 320 319 319 318 317 318 317 317 317 316 315 314 313 312 310 309 308 306 305 303 301 298 296 294 291 288 285 282 280 277 274 272 269 267 266 264 263 260 258 257 257
321 321 321 322 323 323 323 325 326 325 323 320 323 326 324 322 321 322 325 328 325 322 322 323 323 322 321 321 322 322 322 322 323 322 321 322 322 322 323 323 323 323 322 321 321 321 320 320 319 318 318 318 317 317 316 316 315 314 313 311 310 309 307 306 304 301 299 297 295 292 290 287 285 282 280 277 275 272 269 267 265 263 261 259 258 257
320 320 320 321 322 322 323 325 326 325 322 322 325 326 323 321 322 323 326 327 326 324 324 324 324 323 323 323 324 324 323 323 323 323 323 323 323 323 323 324 324 324 323 322 322 322 321 320 319 319 319 318 318 318 317 317 316 315 314 312 311 310 308 306 304 302 300 298 295 293 291 288 286 284 282 280 277 275 272 270 267 265 262 260 258 257
319 318 320 321 322 323 324 326 325 323 322 324 326 325 322 322 323 324 326 327 326 325 325 325 325 324 324 325 324 324 324 323 323 324 324 324 324 324 324 325 325 324 323 323 322 322 322 321 320 319 319 319 318 319 318 318 317 316 314 313 312 311 309 307 305 303 301 299 296 293 291 289 287 285 283 281 279 277 275 273 270 268 265 262 260 258
319 318 320 322 323 324 326 327 324 321 323 326 327 325 322 322 324 325 326 326 326 325 325 326 326 325 325 325 324 324 324 324 324 324 325 325 325 325 325 325 325 325 324 323 323 323 322 321 320 320 320 319 319 319 318 318 317 316 314 313 312 311 310 308 306 304 303 301 297 294 292 290 288 287 285 283 281 279 277 275 273 271 268 265 262 260
318 319 321 324 324 325 328 328 323 322 326 328 327 324 322 323 325 325 326 326 326 325 325 325 326 325 324 324 324 324 324 325 325 325 325 325 325 325 325 325 325 324 324 323 323 323 322 321 320 320 320 319 319 319 319 319 318 316 314 313 313 312 310 308 307 306 304 302 299 296 294 291 290 288 286 284 282 280 279 277 275 273 271 268 266 263
318 320 322 325 326 327 330 328 323 323 327 328 326 323 322 323 325 325 325 325 325 324 324 325 325 324 323 324 324 325 325 325 325 325 325 325 325 324 325 325 325 324 324 323 323 323 322 321 320 320 320 320 320 320 320 319 318 316 314 314 313 312 311 309 308 306 305 303 301 298 296 293 291 289 287 285 283 282 280 278 276 274 273 271 268 266
319 321 323 325 326 328 330 326 322 323 327 326 324 322 322 324 325 324 323 324 324 324 324 324 324 324 323 324 324 325 325 325 325 325 325 325 325 325 325 325 325 324 324 324 323 323 322 321 320 320 320 320 320 320 320 319 318 316 315 314 314 313 311 309 308 307 305 303 302 300 298 295 293 291 289 287 284 283 281 279 277 275 273 272 270 268
319 322 323 325 326 327 328 324 321 324 327 325 323 322 322 324 324 323 323 324 324 324 324 324 324 324 324 324 325 326 326 325 325 325 325 325 325 325 325 325 325 324 324 324 323 322 322 321 321 321 321 321 321 321 320 319 318 316 315 314 314 313 311 309 308 307 305 304 302 301 299 297 295 292 290 288 286 284 282 280 278 276 274 272 271 269
321 323 324 325 326 327 326 324 322 326 328 325 322 322 323 324 324 323 324 324 324 324 324 323 323 324 324 324 325 326 326 325 325 325 325 325 325 325 325 325 325 324 324 324 323 323 322 322 322 321 321 321 321 320 320 319 318 317 315 315 314 313 311 310 308 307 306 304 303 302 300 298 296 293 291 289 287 285 283 281 279 277 275 273 271 269
322 324 324 325 326 326 326 324 324 327 328 324 321 322 323 323 323 323 324 323 323 323 323 323 323 324 324 325 325 325 325 325 325 325 325 325 325 325 325 325 324 324 324 323 323 323 322 322 322 322 322 321 320 320 319 319 319 317 316 315 315 313 312 310 309 308 306 305 303 302 300 299 297 294 292 290 287 285 284 282 280 278 276 274 271 269
324 325 324 325 326 327 326 324 324 326 327 323 321 322 323 322 323 323 323 322 322 323 323 323 324 324 324 324 324 324 325 325 325 325 325 325 324 324 324 324 324 324 324 323 323 323 322 322 322 322 321 321 320 319 319 319 319 317 316 315 315 314 312 311 309 308 306 305 303 302 300 299 297 295 293 290 288 286 284 282 281 279 277 275 273 270
325 325 325 325 326 327 326 325 325 326 325 324 322 323 323 322 322 323 323 322 323 323 323 324 324 324 324 324 324 324 324 325 325 325 324 324 324 324 324 324 324 324 323 323 323 323 322 322 322 322 321 320 319 319 319 319 318 317 316 315 315 314 313 311 310 308 307 305 303 302 301 299 298 296 294 292 289 287 284 282 281 280 278 276 274 272
326 325 325 325 325 326 326 325 326 326 325 325 324 324 323 322 323 323 323 323 323 323 323 323 323 323 324 324 324 324 324 325 324 324 324 324 324 324 324 323 323 324 323 323 323 323 322 322 322 321 321 320 319 319 318 318 318 317 316 316 315 314 313 312 310 309 307 305 304 302 301 299 298 296 294 292 290 288 285 283 280 279 279 277 274 272
Height
10588 10586 10583 10580 10576 10574 10571 10567 10563 10558 10554 10550 10545 10540 10537 10531 10522 10514 10510 10508 10507 10505 10501 10495 10488 10480 10471 10463 10456 10451 10444 10436 10429 10422 10417 10411 10406 10400 10394 10388 10383 10378 10373 10368 10363 10358 10354 10350 10347 10344 10342 10340 10338 10337 10337 10336 10334 10333 10332 10331 10331 10331 10332 10333 10334 10336 10338 10340 10341 10341 10341 10341 10340 10342 10346 10352 10357 10360 10362 10364 10365 10366 10370 10373 10375 10378
10581 10579 10576 10572 10568 10565 10562 10559 10555 10550 10545 10541 10536 10531 10526 10521 10515 10506 10499 10496 10494 10491 10488 10483 10477 10469 10460 10450 10444 10438 10430 10422 10415 10409 10403 10397 10391 10385 10379 10374 10369 10364 10359 10353 10348 10343 10339 10334 10331 10327 10324 10321 10318 10317 10316 10316 10315 10315 10315 10314 10313 10313 10313 10314 10315 10317 10319 10321 10323 10324 10325 10326 10326 10327 10328 10332 10337 10342 10346 10349 10350 10351 10354 10357 10360 10362
10572 10570 10567 10563 10559 10555 10552 10549 10545 10541 10536 10531 10526 10521 10515 10510 10506 10499 10489 10483 10480 10476 10471 10466 10462 10456 10446 10436 10430 10424 10415 10406 10400 10394 10387 10381 10375 10369 10364 10358 10353 10347 10342 10337 10332 10327 10322 10318 10315 10311 10307 10304 10301 10299 10296 10295 10295 10296 10296 10296 10296 10296 10295 10295 10296 10298 10299 10301 10303 10305 10307 10309 10310 10311 10312 10314 10317 10322 10328 10332 10335 10337 10338 10341 10344 10346
10565 10562 10559 10555 10550 10546 10542 10537 10534 10530 10525 10521 10516 10511 10505 10498 10494 10490 10482 10473 10468 10463 10457 10451 10448 10443 10432 10421 10415 10409 10400 10391 10385 10379 10373 10367 10360 10354 10349 10343 10338 10332 10326 10321 10315 10310 10305 10301 10297 10294 10291 10288 10285 10283 10280 10277 10277 10277 10277 10277 10277 10277 10277 10277 10277 10278 10279 10282 10284 10286 10288 10291 10293 10294 10296 10298 10299 10302 10307 10313 10317 10321 10323 10326 10328 10330
10556 10554 10550 10547 10542 10538 10533 10528 10523 10518 10513 10509 10504 10499 10493 10487 10480 10476 10471 10463 10456 10451 10446 10440 10436 10432 10419 10405 10400 10394 10384 10377 10371 10365 10359 10353 10346 10340 10335 10330 10325 10320 10314 10307 10301 10295 10289 10284 10280 10276 10273 10270 10267 10266 10263 10261 10260 10259 10258 10257 10257 10257 10258 10258 10258 10258 10259 10261 10264 10267 10269 10271 10274 10276 10278 10281 10283 10285 10288 10292 10298 10302 10307 10310 10312 10314
10548 10545 10541 10538 10534 10529 10524 10519 10513 10508 10502 10497 10492 10487 10481 10475 10468 10462 10456 10449 10441 10435 10430 10424 10421 10420 10410 10393 10385 10379 10368 10362 10357 10351 10344 10338 10332 10326 10321 10316 10310 10305 10299 10293 10287 10281 10275 10268 10263 10259 10255 10252 10250 10247 10244 10243 10242 10241 10239 10238 10237 10238 10238 10239 10240 10240 10240 10241 10244 10247 10250 10253 10254 10257 10260 10263 10266 10268 10270 10273 10277 10282 10287 10293 10297 10299
10540 10537 10533 10529 10524 10519 10514 10510 10504 10499 10493 10487 10481 10475 10468 10462 10456 10449 10442 10434 10426 10418 10411 10406 10401 10402 10398 10383 10374 10366 10355 10348 10343 10335 10328 10321 10315 10309 10304 10299 10294 10288 10282 10276 10270 10264 10259 10253 10248 10243 10238 10235 10232 10229 10226 10224 10222 10221 10220 10219 10218 10218 10219 10220 10221 10222 10222 10222 10224 10226 10230 10233 10236 10238 10240 10244 10247 10250 10253 10256 10259 10263 10268 10273 10279 10283
10532 10528 10524 10519 10514 10509 10504 10499 10494 10488 10483 10476 10470 10464 10457 10449 10442 10436 10429 10419 10412 10403 10396 10392 10386 10385 10382 10370 10362 10354 10342 10335 10328 10319 10311 10304 10298 10293 10288 10283 10278 10272 10267 10261 10255 10248 10243 10237 10232 10227 10223 10218 10215 10212 10210 10207 10204 10202 10200 10200 10199 10198 10198 10200 10202 10203 10203 10204 10205 10207 10209 10213 10217 10220 10222 10224 10228 10232 10235 10238 10241 10245 10250 10254 10259 10264
10522 10518 10514 10510 10505 10500 10494 10489 10484 10478 10472 10466 10459 10453 10446 10439 10431 10423 10416 10407 10398 10389 10381 10377 10372 10369 10365 10354 10345 10338 10329 10322 10315 10306 10297 10290 10285 10279 10274 10269 10264 10258 10253 10247 10241 10235 10229 10223 10217 10212 10207 10202 10198 10196 10193 10191 10188 10185 10182 10180 10180 10179 10179 10181 10183 10184 10184 10185 10187 10189 10191 10193 10196 10200 10203 10206 10208 10212 10216 10220 10222 10226 10231 10236 10241 10245
10512 10507 10503 10499 10494 10490 10484 10479 10474 10468 10462 10455 10448 10442 10434 10428 10421 10412 10404 10394 10385 10375 10366 10361 10356 10352 10351 10342 10330 10323 10317 10311 10304 10296 10287 10279 10274 10268 10262 10257 10252 10246 10240 10234 10228 10222 10217 10210 10203 10197 10192 10187 10183 10179 10177 10174 10171 10168 10165 10163 10161 10161 10162 10164 10165 10165 10164 10165 10168 10171 10173 10174 10176 10179 10184 10186 10189 10192 10196 10200 10204 10208 10212 10217 10222 10227
10502 10497 10492 10488 10483 10479 10474 10469 10463 10457 10452 10446 10439 10432 10423 10416 10408 10400 10392 10383 10373 10363 10353 10347 10341 10336 10335 10330 10320 10311 10306 10301 10293 10285 10277 10270 10263 10256 10250 10245 10239 10233 10228 10222 10216 10210 10204 10197 10190 10184 10178 10173 10168 10164 10160 10157 10155 10152 10149 10147 10145 10143 10144 10146 10147 10147 10146 10145 10147 10150 10154 10156 10157 10159 10163 10167 10170 10173 10176 10181 10185 10188 10192 10198 10203 10209
10493 10488 10482 10477 10473 10468 10463 10458 10453 10447 10441 10435 10428 10421 10412 10403 10396 10388 10381 10371 10362 10351 10341 10335 10330 10324 10320 10315 10308 10300 10294 10288 10280 10273 10266 10258 10251 10244 10237 10231 10225 10220 10214 10209 10203 10197 10191 10184 10176 10169 10163 10158 10152 10147 10143 10140 10138 10136 10133 10131 10128 10126 10126 10126 10128 10128 10128 10127 10127 10129 10133 10136 10138 10141 10143 10147 10150 10154 10157 10161 10165 10169 10173 10178 10183 10190
10485 10480 10474 10468 10463 10458 10453 10447 10441 10435 10428 10421 10415 10408 10400 10393 10386 10380 10373 10365 10356 10345 10333 10324 10320 10316 10309 10301 10296 10289 10283 10277 10269 10261 10254 10246 10239 10231 10224 10218 10212 10206 10201 10195 10190 10184 10179 10172 10165 10158 10150 10144 10139 10133 10128 10124 10121 10119 10117 10115 10113 10110 10109 10108 10109 10110 10110 10110 10109 10111 10113 10115 10119 10123 10125 10128 10131 10135 10139 10143 10146 10150 10154 10158 10163 10169
10477 10472 10466 10460 10453 10447 10442 10435 10429 10423 10417 10410 10404 10399 10392 10385 10378 10373 10368 10361 10354 10343 10329 10316 10310 10307 10300 10292 10286 10278 10272 10267 10259 10250 10244 10235 10227 10220 10212 10206 10200 10194 10188 10183 10177 10172 10167 10162 10155 10148 10141 10134 10128 10121 10115 10110 10106 10103 10101 10099 10097 10096 10094 10092 10091 10092 10093 10093 10093 10094 10095 10097 10100 10104 10107 10110 10112 10116 10120 10124 10128 10131 10135 10140 10144 10149
10465 10461 10455 10449 10443 10437 10431 10424 10418 10412 10406 10400 10394 10388 10382 10374 10366 10360 10355 10349 10345 10339 10326 10311 10300 10294 10290 10283 10276 10268 10260 10255 10248 10240 10233 10225 10217 10209 10201 10195 10189 10182 10175 10170 10165 10160 10155 10150 10145 10138 10132 10125 10117 10110 10103 10098 10093 10090 10087 10084 10082 10080 10079 10078 10076 10075 10076 10077 10077 10077 10079 10080 10082 10085 10088 10091 10094 10097 10101 10105 10109 10113 10117 10121 10126 10130
10455 10450 10445 10439 10432 10426 10421 10414 10408 10401 10396 10390 10384 10377 10370 10363 10354 10347 10341 10335 10330 10327 10319 10307 10293 10283 10279 10274 10265 10257 10248 10242 10236 10229 10222 10215 10207 10199 10191 10184 10177 10170 10163 10157 10152 10147 10141 10137 10132 10127 10121 10114 10108 10100 10093 10086 10081 10077 10073 10070 10067 10065 10063 10062 10061 10060 10060 10060 10061 10061 10062 10064 10066 10068 10071 10073 10076 10080 10083 10087 10091 10095 10098 10102 10107 10112
10446 10441 10436 10430 10423 10417 10411 10405 10399 10392 10385 10378 10371 10366 10358 10351 10344 10336 10330 10324 10318 10314 10308 10300 10286 10273 10269 10266 10257 10248 10238 10231 10226 10219 10211 10205 10198 10190 10181 10173 10167 10159 10152 10145 10139 10134 10128 10122 10117 10112 10107 10101 10095 10089 10083 10076 10070 10065 10062 10058 10054 10052 10049 10047 10046 10045 10045 10045 10045 10045 10046 10047 10049 10052 10054 10056 10058 10062 10066 10069 10073 10076 10080 10084 10088 10093
10437 10432 10428 10423 10415 10408 10402 10396 10389 10382 10375 10367 10360 10354 10347 10340 10333 10325 10319 10313 10307 10303 10298 10292 10277 10259 10257 10259 10251 10242 10231 10221 10215 10208 10201 10194 10187 10180 10171 10162 10155 10148 10140 10134 10127 10121 10116 10109 10103 10097 10091 10086 10080 10075 10070 10064 10059 10053 10049 10046 10042 10039 10036 10034 10032 10031 10031 10030 10030 10030 10031 10031 10033 10035 10037 10040 10041 10044 10047 10051 10055 10058 10061 10065 10070 10075
10429 10424 10420 10416 10409 10401 10393 10387 10380 10372 10365 10358 10350 10342 10334 10328 10321 10313 10306 10299 10294 10290 10287 10286 10271 10246 10241 10246 10240 10232 10223 10212 10205 10197 10189 10184 10177 10170 10161 10150 10144 10137 10129 10122 10115 10109 10103 10097 10091 10085 10079 10073 10067 10062 10056 10051 10047 10041 10037 10033 10030 10027 10024 10021 10020 10018 10017 10017 10016 10016 10016 10016 10017 10018 10020 10023 10025 10027 10029 10033 10037 10040 10044 10047 10051 10056
10422 10416 10411 10408 10402 10394 10386 10378 10371 10362 10355 10348 10341 10333 10323 10316 10309 10301 10293 10286 10282 10277 10272 10276 10267 10239 10226 10231 10229 10222 10213 10201 10194 10187 10178 10173 10167 10159 10149 10139 10132 10126 10118 10110 10102 10096 10090 10083 10078 10072 10067 10061 10055 10050 10044 10038 10034 10029 10024 10020 10016 10013 10010 10008 10007 10007 10005 10004 10003 10003 10002 10002 10002 10002 10003 10005 10008 10011 10014 10016 10019 10023 10027 10030 10034 10038
10416 10410 10403 10398 10394 10387 10380 10372 10364 10354 10345 10337 10331 10324 10315 10306 10298 10291 10284 10276 10271 10266 10258 10260 10260 10237 10215 10214 10215 10210 10201 10190 10181 10174 10165 10159 10154 10147 10136 10127 10121 10115 10107 10099 10091 10083 10077 10070 10064 10058 10053 10049 10044 10038 10033 10026 10021 10017 10012 10008 10004 10000 9997 9995 9993 9993 9993 9991 9990 9989 9988 9988 9988 9988 9988 9989 9991 9994 9998 10000 10003 10006 10009 10013 10017 10020
10410 10403 10396 10389 10384 10378 10372 10364 10356 10347 10335 10326 10319 10314 10308 10299 10289 10280 10274 10268 10261 10256 10248 10245 10249 10235 10208 10199 10202 10197 10187 10178 10168 10159 10152 10146 10141 10135 10125 10115 10108 10103 10095 10087 10080 10072 10065 10058 10051 10045 10040 10036 10032 10027 10021 10015 10010 10004 10000 9995 9992 9988 9985 9982 9980 9978 9978 9978 9977 9976 9975 9974 9974 9974 9974 9975 9976 9978 9981 9984 9987 9990 9992 9996 9999 10003
10402 10397 10390 10383 10376 10370 10364 10356 10349 10340 10329 10317 10308 10303 10299 10292 10282 10270 10262 10258 10253 10248 10240 10233 10237 10231 10204 10188 10191 10186 10175 10167 10157 10148 10141 10135 10131 10125 10116 10105 10098 10092 10085 10077 10070 10062 10055 10047 10040 10034 10028 10023 10019 10015 10010 10005 9999 9994 9989 9984 9980 9976 9973 9970 9967 9965 9963 9963 9963 9963 9962 9960 9960 9960 9960 9961 9961 9962 9965 9967 9970 9974 9976 9979 9982 9985
10395 10390 10384 10377 10369 10362 10355 10348 10342 10333 10323 10312 10301 10294 10290 10285 10276 10264 10253 10248 10243 10239 10231 10220 10223 10222 10198 10179 10180 10175 10165 10157 10147 10138 10131 10125 10121 10117 10107 10097 10089 10084 10077 10069 10062 10054 10046 10039 10031 10024 10018 10012 10008 10003 9998 9993 9988 9983 9979 9974 9970 9966 9962 9959 9956 9953 9950 9948 9948 9948 9947 9947 9946 9946 9946 9946 9947 9947 9949 9951 9954 9957 9961 9964 9966 9968
10389 10383 10377 10372 10364 10357 10351 10343 10336 10327 10315 10304 10293 10284 10281 10276 10267 10257 10246 10239 10234 10231 10223 10210 10211 10212 10190 10172 10172 10165 10156 10150 10139 10127 10121 10116 10113 10108 10099 10088 10081 10075 10068 10059 10051 10044 10037 10030 10022 10015 10009 10003 9997 9992 9986 9981 9977 9972 9968 9964 9960 9956 9952 9948 9945 9941 9937 9935 9934 9933 9932 9932 9932 9932 9932 9931 9932 9933 9934 9935 9937 9940 9944 9948 9951 9953
10382 10375 10369 10364 10356 10349 10344 10338 10331 10322 10309 10296 10284 10274 10271 10266 10257 10246 10236 10227 10221 10220 10214 10200 10198 10203 10187 10168 10164 10155 10145 10142 10132 10120 10112 10106 10103 10100 10091 10080 10072 10066 10059 10050 10042 10035 10028 10021 10014 10006 10000 9993 9987 9982 9976 9970 9965 9960 9957 9953 9950 9947 9943 9939 9934 9930 9926 9923 9921 9919 9918 9918 9918 9918 9918 9918 9918 9918 9919 9920 9922 9924 9928 9931 9935 9938
10376 10368 10361 10356 10348 10337 10332 10328 10323 10315 10303 10289 10275 10266 10262 10257 10248 10236 10225 10215 10207 10206 10203 10190 10183 10186 10179 10166 10158 10147 10136 10132 10123 10111 10102 10095 10093 10090 10081 10070 10063 10056 10049 10042 10034 10027 10020 10013 10005 9998 9990 9984 9978 9973 9966 9960 9954 9949 9945 9941 9939 9936 9933 9929 9925 9920 9916 9913 9910 9907 9905 9905 9905 9904 9904 9904 9904 9904 9905 9906 9908 9910 9912 9915 9918 9920
10370 10362 10353 10349 10341 10327 10320 10317 10312 10306 10296 10282 10266 10256 10253 10248 10240 10229 10216 10205 10196 10192 10189 10182 10174 10168 10161 10159 10154 10140 10129 10123 10113 10101 10091 10084 10082 10079 10070 10059 10052 10046 10039 10032 10025 10018 10011 10004 9996 9988 9981 9974 9969 9964 9957 9951 9944 9938 9933 9930 9927 9924 9921 9918 9915 9911 9906 9902 9899 9897 9894 9892 9891 9891 9890 9890 9890 9891 9892 9893 9894 9895 9897 9899 9901 9903
10363 10357 10347 10342 10336 10320 10308 10306 10303 10296 10289 10275 10258 10247 10244 10241 10233 10222 10209 10195 10185 10179 10174 10171 10169 10159 10145 10144 10144 10132 10120 10114 10105 10093 10082 10074 10072 10068 10059 10050 10042 10035 10028 10021 10013 10005 9998 9992 9985 9978 9971 9965 9959 9954 9948 9942 9935 9928 9922 9918 9914 9911 9909 9906 9903 9900 9897 9893 9889 9886 9884 9881 9879 9878 9878 9877 9877 9877 9878 9879 9880 9881 9882 9884 9885 9887
10353 10350 10341 10336 10333 10318 10301 10295 10293 10287 10280 10268 10250 10238 10235 10233 10227 10216 10203 10188 10176 10169 10163 10160 10159 10152 10137 10129 10129 10123 10113 10105 10096 10086 10074 10066 10063 10059 10049 10040 10033 10025 10018 10010 10002 9994 9987 9980 9974 9967 9960 9953 9947 9942 9937 9931 9925 9919 9912 9907 9902 9899 9896 9894 9891 9889 9886 9883 9879 9876 9873 9871 9869 9868 9866 9864 9864 9864 9865 9866 9866 9867 9869 9870 9871 9873
10343 10340 10332 10327 10327 10317 10299 10290 10286 10279 10271 10258 10242 10231 10227 10226 10221 10210 10197 10183 10168 10159 10156 10151 10147 10141 10132 10122 10116 10110 10103 10096 10088 10077 10066 10059 10054 10049 10041 10032 10024 10017 10009 10001 9993 9985 9977 9969 9963 9956 9948 9941 9935 9929 9924 9919 9914 9907 9902 9896 9891 9887 9884 9881 9878 9876 9873 9871 9869 9866 9863 9861 9859 9857 9855 9853 9852 9851 9851 9852 9852 9853 9855 9856 9858 9860
10331 10327 10321 10316 10316 10311 10296 10286 10282 10275 10265 10251 10234 10224 10222 10220 10215 10206 10192 10178 10163 10151 10149 10146 10136 10127 10122 10115 10108 10101 10093 10086 10078 10067 10057 10052 10047 10038 10031 10025 10017 10009 10000 9991 9983 9974 9966 9959 9952 9944 9937 9930 9924 9919 9913 9908 9902 9896 9891 9886 9881 9876 9873 9869 9866 9863 9861 9858 9857 9855 9853 9850 9848 9845 9844 9842 9841 9839 9838 9838 9839 9840 9841 9843 9845 9847
10322 10315 10310 10304 10303 10301 10289 10280 10277 10270 10259 10245 10226 10215 10216 10215 10209 10202 10192 10176 10157 10144 10142 10140 10129 10118 10112 10105 10099 10094 10086 10076 10067 10056 10046 10044 10041 10031 10021 10014 10008 10001 9992 9983 9975 9966 9957 9949 9942 9934 9928 9921 9916 9910 9905 9899 9893 9887 9881 9876 9872 9867 9863 9859 9855 9852 9850 9847 9844 9843 9841 9839 9836 9834 9833 9832 9830 9828 9827 9826 9826 9827 9829 9830 9831 9833
10312 10304 10300 10293 10290 10289 10280 10271 10269 10264 10253 10236 10217 10208 10209 10208 10201 10196 10189 10173 10151 10138 10136 10132 10121 10111 10104 10096 10089 10085 10079 10070 10059 10047 10036 10033 10031 10024 10015 10006 9998 9992 9985 9976 9967 9957 9948 9941 9933 9925 9918 9912 9907 9901 9896 9890 9883 9877 9871 9866 9862 9857 9852 9849 9845 9842 9839 9836 9833 9832 9829 9827 9825 9823 9822 9821 9819 9818 9817 9816 9816 9816 9817 9818 9819 9819
10301 10294 10289 10283 10278 10275 10270 10262 10258 10257 10248 10226 10205 10198 10200 10197 10189 10185 10184 10171 10145 10131 10130 10124 10114 10105 10097 10089 10081 10075 10071 10065 10054 10039 10028 10024 10019 10012 10007 9999 9989 9982 9975 9967 9958 9949 9940 9932 9924 9916 9909 9902 9896 9891 9885 9879 9873 9866 9861 9855 9851 9847 9842 9839 9835 9832 9829 9826 9823 9821 9818 9816 9814 9812 9810 9809 9808 9807 9807 9806 9806 9806 9806 9806 9806 9806
10291 10284 10278 10272 10267 10261 10258 10253 10246 10245 10242 10220 10197 10191 10189 10184 10176 10172 10177 10171 10144 10126 10124 10118 10108 10100 10090 10082 10075 10067 10061 10058 10049 10033 10021 10016 10010 10001 9994 9988 9980 9973 9965 9957 9949 9941 9931 9923 9914 9907 9900 9893 9886 9880 9875 9870 9863 9857 9851 9846 9841 9836 9832 9828 9825 9821 9819 9816 9812 9810 9807 9805 9803 9801 9800 9798 9797 9796 9795 9796 9796 9795 9796 9796 9795 9794
10281 10274 10267 10261 10257 10248 10244 10243 10236 10232 10229 10212 10195 10189 10182 10173 10165 10159 10166 10167 10143 10122 10118 10111 10101 10093 10083 10074 10068 10060 10052 10049 10043 10029 10016 10010 10003 9993 9985 9978 9970 9963 9956 9948 9940 9932 9923 9915 9905 9897 9891 9885 9877 9871 9865 9860 9855 9849 9843 9837 9832 9827 9822 9818 9815 9811 9807 9805 9802 9799 9796 9794 9792 9790 9789 9788 9787 9786 9785 9784 9784 9785 9785 9785 9783 9783
10274 10267 10258 10251 10248 10239 10231 10230 10225 10219 10211 10195 10184 10181 10171 10160 10153 10145 10149 10154 10138 10117 10109 10102 10093 10085 10076 10067 10060 10051 10043 10039 10034 10023 10010 10003 9996 9986 9978 9970 9961 9954 9946 9938 9931 9923 9915 9906 9897 9888 9881 9875 9869 9862 9855 9850 9845 9839 9833 9827 9822 9817 9812 9808 9805 9801 9797 9794 9791 9788 9785 9783 9781 9779 9778 9777 9776 9775 9774 9774 9774 9774 9774 9774 9773 9772
10268 10260 10253 10246 10240 10231 10222 10218 10212 10205 10195 10181 10173 10168 10156 10145 10139 10131 10132 10137 10128 10111 10101 10093 10085 10076 10066 10058 10051 10041 10031 10025 10022 10013 10001 9993 9987 9977 9969 9962 9953 9944 9936 9927 9919 9912 9904 9896 9888 9880 9872 9865 9860 9854 9847 9840 9833 9828 9822 9817 9812 9808 9803 9799 9795 9791 9788 9784 9780 9777 9775 9772 9770 9768 9766 9765 9764 9763 9763 9763 9763 9763 9763 9763 9762 9761
10264 10254 10247 10241 10234 10224 10216 10210 10204 10195 10183 10170 10164 10158 10144 10134 10127 10119 10115 10116 10111 10100 10092 10084 10075 10066 10056 10047 10039 10031 10020 10010 10006 10000 9989 9980 9974 9965 9957 9950 9942 9934 9925 9916 9908 9900 9893 9885 9877 9871 9863 9856 9850 9844 9838 9831 9824 9817 9812 9807 9802 9799 9794 9790 9786 9782 9779 9776 9771 9767 9765 9762 9761 9758 9756 9754 9752 9751 9752 9752 9752 9752 9752 9752 9751 9750
10256 10247 10241 10235 10228 10219 10210 10201 10194 10187 10177 10165 10157 10148 10134 10123 10117 10109 10102 10098 10093 10085 10078 10072 10063 10053 10045 10037 10029 10021 10013 10002 9993 9987 9979 9969 9961 9953 9944 9937 9930 9922 9914 9906 9898 9890 9883 9874 9866 9860 9854 9847 9841 9835 9829 9823 9816 9808 9802 9797 9793 9789 9785 9780 9776 9772 9770 9767 9763 9759 9755 9753 9751 9749 9746 9744 9741 9740 9740 9741 9741 9741 9741 9741 9741 9740
10244 10236 10233 10228 10219 10211 10204 10192 10178 10173 10171 10162 10149 10136 10124 10114 10107 10100 10093 10088 10080 10070 10063 10058 10051 10041 10034 10028 10020 10012 10004 9995 9985 9976 9968 9959 9950 9942 9934 9926 9919 9911 9903 9895 9888 9880 9873 9865 9857 9850 9844 9837 9832 9826 9820 9814 9808 9800 9794 9788 9783 9779 9775 9770 9766 9763 9760 9757 9754 9751 9747 9744 9742 9739 9736 9734 9732 9729 9729 9730 9730 9729 9729 9730 9730 9730
10234 10225 10224 10220 10210 10200 10196 10184 10164 10155 10155 10151 10139 10124 10113 10107 10100 10091 10084 10078 10071 10061 10053 10047 10041 10031 10022 10017 10011 10002 9994 9985 9976 9966 9958 9950 9942 9933 9926 9918 9910 9902 9894 9886 9878 9871 9863 9856 9848 9841 9835 9828 9823 9817 9812 9806 9800 9792 9785 9780 9775 9770 9765 9760 9756 9753 9750 9747 9745 9742 9739 9736 9733 9730 9727 9724 9722 9720 9719 9719 9719 9719 9718 9719 9719 9719
10227 10218 10214 10210 10201 10192 10186 10174 10155 10145 10144 10140 10131 10117 10105 10099 10093 10084 10076 10071 10064 10054 10045 10039 10033 10024 10014 10007 10001 9993 9984 9975 9967 9959 9950 9943 9934 9925 9918 9910 9902 9894 9885 9877 9869 9862 9854 9847 9839 9833 9826 9819 9814 9808 9802 9797 9791 9784 9777 9772 9767 9762 9756 9751 9747 9744 9741 9738 9735 9732 9730 9727 9724 9722 9718 9715 9713 9711 9710 9709 9709 9709 9708 9708 9708 9708
10219 10214 10209 10204 10196 10188 10182 10167 10150 10144 10141 10131 10121 10112 10100 10093 10087 10076 10069 10063 10056 10046 10037 10029 10023 10015 10005 9996 9990 9983 9975 9966 9958 9950 9941 9933 9925 9916 9908 9901 9892 9884 9876 9868 9861 9853 9845 9838 9830 9823 9816 9809 9803 9798 9793 9788 9783 9776 9769 9763 9759 9754 9748 9743 9739 9735 9731 9728 9725 9723 9720 9718 9715 9713 9710 9707 9704 9702 9700 9700 9699 9699 9699 9698 9697 9697
10212 10207 10202 10197 10191 10185 10181 10165 10146 10141 10137 10122 10110 10103 10095 10088 10080 10069 10060 10053 10046 10037 10028 10018 10011 10004 9995 9986 9979 9972 9965 9955 9947 9940 9931 9922 9914 9905 9897 9890 9882 9874 9866 9859 9851 9844 9836 9828 9821 9814 9807 9800 9793 9788 9783 9779 9774 9768 9761 9755 9751 9746 9740 9735 9730 9726 9722 9719 9716 9713 9711 9708 9706 9704 9701 9698 9695 9693 9691 9690 9689 9689 9689 9689 9687 9686
10205 10199 10192 10187 10182 10174 10170 10160 10144 10137 10131 10113 10099 10093 10087 10080 10072 10061 10050 10043 10035 10028 10020 10010 10002 9994 9986 9977 9968 9961 9955 9945 9936 9929 9921 9911 9902 9895 9887 9880 9872 9863 9856 9849 9841 9834 9826 9819 9812 9804 9797 9790 9784 9778 9774 9769 9764 9758 9752 9747 9743 9738 9732 9727 9723 9718 9714 9710 9707 9704 9701 9699 9696 9694 9692 9690 9687 9684 9682 9681 9679 9679 9679 9680 9678 9677
10196 10190 10181 10177 10174 10165 10156 10146 10137 10135 10129 10109 10091 10084 10079 10072 10065 10056 10045 10035 10027 10020 10013 10003 9994 9984 9976 9968 9959 9951 9945 9936 9926 9919 9911 9901 9892 9885 9877 9870 9862 9853 9846 9839 9831 9824 9816 9809 9802 9795 9788 9781 9775 9769 9764 9760 9755 9749 9743 9738 9734 9730 9724 9719 9715 9710 9706 9702 9698 9695 9692 9690 9687 9685 9683 9681 9678 9676 9674 9672 9670 9669 9670 9670 9669 9668
10186 10179 10169 10163 10162 10157 10146 10134 10125 10126 10127 10113 10093 10080 10072 10064 10057 10051 10041 10030 10021 10012 10004 9995 9986 9975 9966 9958 9950 9942 9935 9927 9917 9908 9900 9892 9883 9875 9867 9860 9852 9844 9836 9829 9821 9814 9806 9800 9793 9786 9780 9773 9766 9761 9755 9750 9745 9740 9734 9729 9725 9721 9716 9711 9706 9702 9698 9694 9690 9686 9683 9681 9679 9676 9674 9672 9670 9668 9665 9664 9661 9660 9660 9660 9659 9658
10177 10168 10158 10150 10146 10144 10137 10125 10114 10109 10108 10103 10091 10079 10067 10056 10048 10043 10034 10023 10014 10004 9995 9986 9979 9969 9960 9951 9941 9933 9925 9917 9908 9899 9891 9882 9873 9865 9858 9850 9842 9835 9827 9820 9812 9805 9797 9791 9784 9777 9771 9764 9758 9752 9746 9741 9737 9731 9725 9721 9717 9712 9708 9703 9698 9693 9690 9686 9682 9678 9675 9672 9670 9667 9665 9662 9660 9659 9657 9656 9654 9651 9650 9651 9650 9649
10169 10160 10149 10139 10133 10130 10123 10115 10107 10097 10089 10083 10077 10069 10057 10046 10039 10033 10024 10014 10006 9997 9988 9979 9970 9962 9953 9943 9933 9923 9915 9907 9899 9890 9882 9873 9864 9856 9848 9840 9833 9826 9818 9810 9803 9796 9788 9782 9775 9769 9763 9756 9749 9743 9737 9733 9728 9722 9716 9712 9708 9703 9699 9695 9690 9685 9681 9678 9674 9670 9666 9664 9661 9659 9656 9654 9651 9649 9648 9647 9646 9644 9641 9640 9641 9641